Location: Clegg Observatory
(38.9178°N, 78.6069°W)
Time: 17:35:08
(UTC-04:00)

Cosmos 1151 Rocket - Visible Passes

Search period start: 26 April 2017 00:00
Search period end: 06 May 2017 00:00
Orbit: 592 x 617 km, 82.5° (Epoch: 25 April)

Date Brightness Start Highest point End Pass type
(mag) Time Alt. Az. Time Alt. Az. Time Alt. Az.
28 Apr 6.3 20:35:16 10° WSW 20:38:05 17° WNW 20:40:55 10° NNW visible
30 Apr 6.4 05:18:29 10° NE 05:20:37 13° ENE 05:22:46 10° ESE visible
01 May 5.9 05:30:14 10° NNE 05:33:36 22° ENE 05:36:58 10° SE visible
02 May 4.8 05:42:31 10° N 05:46:30 37° ENE 05:50:28 10° SSE visible
05 May 6.1 04:44:33 10° NE 04:47:05 15° ENE 04:49:38 10° ESE visible
